This is the latest recevied weather packets stored in our database for station/object DH0DM-13. If no packets are shown the sender has not sent any weather packets the latest 10 day(s).
| Time | Temp. | Humidity | Pressure | Rain* | Wind** | Luminosity | Snow |
|---|---|---|---|---|---|---|---|
| 1777024165 | 6.11° C | 86% | 993.5 hPa | 0 mm | 6.71 m/s, 246° | - | - |
| 1777023564 | 6.11° C | 86% | 993.5 hPa | 0 mm | 10.28 m/s, 273° | - | - |
| 1777022963 | 6.11° C | 86% | 993.6 hPa | 0 mm | 10.28 m/s, 256° | - | - |
| 1777022362 | 5.56° C | 87% | 993.4 hPa | 0 mm | 12.07 m/s, 270° | - | - |
| 1777021761 | 5.56° C | 88% | 993.1 hPa | 0 mm | 6.26 m/s, 229° | - | - |
| 1777021161 | 5.56° C | 88% | 993.3 hPa | 0 mm | 4.47 m/s, 274° | - | - |
| 1777020560 | 5.56° C | 89% | 993.4 hPa | 0 mm | 2.68 m/s, 209° | - | - |
| 1777019959 | 5° C | 90% | 993.5 hPa | 0 mm | 10.28 m/s, 242° | - | - |
| 1777019358 | 5° C | 89% | 993.4 hPa | 0 mm | 3.58 m/s, 210° | - | - |
| 1777018757 | 5° C | 88% | 993.4 hPa | 0 mm | 9.83 m/s, 287° | - | - |
| 1777018156 | 5° C | 88% | 993.3 hPa | 0 mm | 1.79 m/s, 265° | - | - |
| 1777017555 | 5° C | 88% | 993.3 hPa | 0 mm | 4.92 m/s, 279° | - | - |
| 1777016954 | 5° C | 87% | 993.4 hPa | 0 mm | 2.68 m/s, 228° | - | - |
| 1777016353 | 5° C | 87% | 993.1 hPa | 0 mm | 4.02 m/s, 283° | - | - |
| 1777015752 | 5° C | 86% | 993.2 hPa | 0 mm | 10.28 m/s, 255° | - | - |
| 1777015151 | 5° C | 87% | 993.1 hPa | 0 mm | 6.71 m/s, 265° | - | - |
| 1777014551 | 5° C | 88% | 993 hPa | 0 mm | 3.58 m/s, 244° | - | - |
| 1777013950 | 5° C | 87% | 993.2 hPa | 0 mm | 4.92 m/s, 243° | - | - |
| 1777013349 | 5° C | 87% | 993 hPa | 0 mm | 5.36 m/s, 236° | - | - |
| 1777012748 | 5° C | 87% | 993 hPa | 0 mm | 10.28 m/s, 213° | - | - |
| 1777012147 | 5° C | 87% | 992.9 hPa | 0 mm | 6.26 m/s, 239° | - | - |
| 1777011546 | 5° C | 87% | 993.1 hPa | 0 mm | 4.92 m/s, 273° | - | - |
| 1777010945 | 5° C | 87% | 992.9 hPa | 0 mm | 4.02 m/s, 216° | - | - |
| 1777010345 | 5.56° C | 86% | 993.1 hPa | 0 mm | 5.36 m/s, 284° | - | - |
| 1777009744 | 5.56° C | 86% | 992.9 hPa | 0 mm | 4.02 m/s, 283° | - | - |
* Rain since midnight (hover to see other rain measurements)
** Current wind speed in m/s (hover to see current wind gust speed)